Dewpoint
55 44 41 45 44 35 33 30 21 23 20 13 6 6 7 4 7 11 15 14 21 33 38 40 41 41 43 45 46 47 47 47 50 44 50 54 62 64 66 67 68 69 70 71 72 73 73 74 75 75 75 75 75 75 75 75 74 74 75 74 75 75 74 74 74 74 74 74 73 73 73 73 73 72 72 73 72 72 71 70 70 70 70 70 71 71 71 71 70 70 70 70 70 70 70 69 68
32 37 44 42 29 30 31 29 23 16 20 15 5 -1 -3 -1 11 10 7 20 34 37 39 38 40 41 41 43 46 47 47 49 51 52 52 56 59 64 65 67 67 69 70 71 72 72 72 73 74 75 75 74 75 75 75 74 74 74 74 74 75 74 74 74 74 74 74 74 73 73 73 73 73 72 72 72 72 72 72 71 70 70 70 70 70 70 71 71 70 70 70 69 70 70 70 68 68
36 39 37 22 23 30 33 31 19 13 9 13 11 -2 -9 0 4 4 9 36 36 37 38 38 36 34 37 39 44 46 46 48 49 51 52 58 61 65 68 69 69 69 70 71 71 71 71 73 74 74 75 74 75 75 75 75 74 74 74 74 75 75 74 74 74 74 74 74 73 73 73 73 73 72 72 72 72 73 72 72 71 70 70 70 70 70 70 70 70 69 69 69 69 70 70 68 67
43 37 35 24 20 26 29 26 24 15 7 2 2 2 -9 -1 1 10 35 35 35 33 30 34 33 36 35 37 42 44 46 48 51 51 50 55 62 66 67 69 69 69 70 70 71 71 71 73 74 74 74 74 75 75 75 75 74 74 74 75 75 74 74 74 74 74 73 73 73 73 73 73 72 72 72 72 72 72 72 72 72 71 70 70 69 69 69 69 69 69 69 69 69 69 70 68 68
39 35 35 33 24 26 17 11 14 12 3 1 -1 -4 -1 0 31 33 35 34 31 29 30 30 32 35 37 38 39 37 42 46 47 50 50 54 63 67 68 68 68 69 69 69 70 71 72 73 73 74 74 74 74 75 75 75 74 74 74 74 74 74 74 74 74 74 73 73 73 73 73 72 71 72 72 72 73 73 72 72 72 72 71 71 71 70 70 71 69 69 68 69 69 70 69 69 69
28 28 32 31 31 32 29 22 8 5 3 -7 -10 -4 -4 21 30 32 30 29 28 29 26 23 28 32 35 37 39 39 41 40 46 49 52 60 63 67 68 68 68 69 70 70 70 70 72 72 73 73 73 74 74 74 75 75 74 74 74 74 74 74 74 74 74 74 73 73 73 72 72 71 71 72 72 72 72 72 72 72 72 72 71 71 71 70 69 70 69 69 69 69 69 70 69 69 69
27 26 26 23 24 28 27 20 10 1 1 -1 -7 -9 -0 24 27 29 28 28 28 27 24 24 27 29 29 33 36 39 40 43 48 51 52 57 62 63 67 68 68 69 69 70 70 70 71 72 72 72 73 73 73 74 74 74 74 74 74 74 73 74 74 73 74 74 73 73 73 72 71 71 71 71 71 72 72 72 72 72 72 71 71 71 70 69 68 69 69 69 69 69 70 69 69 69 69
35 29 23 14 13 17 16 17 14 6 1 -0 -7 -2 4 20 24 24 26 26 26 24 22 24 22 25 30 34 34 39 43 47 50 53 55 56 59 59 63 68 68 68 68 69 70 71 72 71 71 72 72 73 73 73 73 74 74 74 74 74 74 74 74 73 72 74 74 73 73 72 72 72 72 72 71 72 72 72 72 72 71 71 71 71 71 70 70 69 70 69 69 69 69 69 69 69 69
26 25 26 22 13 8 6 4 2 3 3 -0 -9 11 31 20 20 21 22 21 25 21 19 19 24 26 33 34 35 39 42 47 52 57 55 56 56 56 56 60 67 67 69 69 70 70 70 71 71 71 72 72 72 72 73 73 73 74 74 73 73 73 73 73 73 73 73 73 72 72 72 72 72 72 72 72 72 72 71 71 71 71 72 71 71 70 69 69 69 70 70 69 69 70 69 69 68
17 20 23 23 21 12 5 4 -1 -5 -5 -3 -5 4 9 19 17 18 17 17 18 14 15 15 20 31 31 31 33 35 42 47 50 51 52 53 55 56 58 60 65 66 68 68 69 69 69 71 70 71 71 71 72 72 72 72 73 73 74 74 74 73 73 73 73 73 73 73 73 73 73 72 72 73 72 72 72 72 72 72 72 72 71 70 70 70 70 69 70 70 69 69 69 69 69 69 68
14 15 23 26 23 12 9 6 4 -4 -10 -8 -1 3 4 15 13 14 15 16 17 13 13 13 27 27 32 34 36 39 43 46 48 49 49 50 52 55 58 61 62 65 66 68 68 69 69 69 71 70 70 70 71 71 71 72 72 73 74 74 73 73 73 73 73 73 73 73 73 73 73 73 73 73 72 72 72 72 72 72 72 71 70 69 70 70 71 70 70 69 69 69 70 69 69 69 68
15 16 15 16 18 13 3 6 9 1 -9 2 2 5 5 7 12 10 14 14 16 13 13 13 21 31 30 30 33 37 40 42 44 45 46 46 48 52 56 59 62 64 67 67 66 69 69 69 69 70 69 70 70 71 71 71 72 72 73 73 73 73 73 73 73 73 73 73 73 73 73 72 72 73 72 72 72 72 71 71 71 71 70 70 70 70 71 70 70 69 69 69 69 69 69 69 68
19 17 15 9 9 11 8 3 4 6 -5 3 3 5 4 8 12 9 10 13 15 12 9 13 27 27 26 29 34 37 39 39 40 41 40 41 45 44 48 54 58 62 65 66 65 66 69 69 68 68 69 69 69 70 70 71 71 72 73 73 73 73 73 73 73 73 73 73 73 72 72 72 72 72 72 72 72 71 71 71 71 71 70 70 70 70 70 70 69 69 69 69 68 69 69 68 68
17 19 19 15 8 4 3 3 2 2 -0 3 4 4 8 9 11 10 15 16 15 11 12 18 19 27 28 29 32 35 35 41 43 43 43 42 44 42 48 42 51 56 61 62 65 66 66 67 68 68 68 70 70 70 70 70 70 71 72 72 73 73 73 73 72 72 73 73 73 72 72 72 72 72 72 72 72 72 71 71 71 71 70 70 70 70 69 69 69 69 69 68 69 69 69 68 68
12 17 21 20 16 11 2 1 -1 -0 -3 2 5 4 9 13 12 12 16 14 15 14 18 21 20 25 26 28 30 32 35 39 44 44 50 48 41 45 39 43 49 50 47 58 62 64 66 67 67 68 69 70 70 71 70 69 70 70 71 72 72 72 73 72 72 72 72 72 72 72 72 72 72 72 72 72 71 71 71 71 71 71 70 70 70 69 69 69 69 69 69 69 69 69 68 68 68
9 11 13 16 11 10 7 1 1 3 0 2 5 8 8 11 11 11 13 17 15 16 16 17 23 22 24 27 31 34 39 42 48 52 50 49 49 46 39 43 39 42 49 46 52 61 63 67 69 68 68 69 70 70 71 70 69 70 71 72 72 72 72 73 72 72 72 72 72 72 72 71 72 71 71 71 71 71 71 70 71 71 71 70 70 69 69 69 69 69 69 69 69 68 68 68 68
11 11 14 15 12 10 7 4 2 1 0 7 7 6 3 7 10 12 15 18 15 14 12 15 24 31 30 30 34 39 44 52 53 51 53 49 47 44 45 47 46 47 48 50 53 53 60 62 65 68 68 68 68 68 70 69 70 71 71 71 71 72 72 72 72 72 72 72 72 72 71 70 71 71 71 70 71 70 70 70 71 70 70 70 70 69 69 69 69 69 69 69 69 69 69 68 68
10 13 13 13 12 8 5 1 -1 4 3 8 8 6 3 7 9 14 15 16 13 16 17 21 29 33 34 36 39 42 45 51 51 47 46 45 49 43 45 48 47 46 45 46 47 44 49 52 59 64 67 68 69 69 69 69 70 70 70 70 70 70 72 72 72 71 72 70 71 71 71 70 70 69 71 68 70 70 70 70 71 70 70 70 70 69 69 68 69 69 69 69 69 69 69 67 67
9 11 11 7 9 7 1 -1 6 -0 -0 8 7 8 5 7 9 14 14 13 13 13 19 19 28 33 36 38 41 43 49 52 53 53 48 51 44 49 44 47 48 46 47 47 51 47 53 52 48 56 65 66 68 68 69 70 69 70 69 69 70 70 69 69 70 68 67 66 68 68 69 68 67 65 69 67 69 69 69 71 71 70 70 70 70 70 69 69 68 68 68 68 68 69 68 65 65
10 12 8 5 5 4 2 2 7 6 7 8 7 7 6 6 10 12 9 9 12 12 17 17 23 27 33 36 40 44 47 48 55 54 47 48 47 47 45 46 47 53 48 46 47 51 50 55 50 51 55 65 67 68 69 69 69 70 69 69 69 70 69 69 67 66 65 64 63 67 67 65 66 70 67 67 68 66 69 70 70 70 70 69 70 69 69 69 68 68 66 67 67 65 63 61 61
9 8 8 5 1 7 5 7 9 9 8 7 7 6 5 8 7 10 6 7 12 14 15 16 19 23 31 36 42 46 48 50 48 52 53 46 48 50 47 48 46 46 49 48 50 52 55 57 58 55 52 62 65 68 68 68 68 69 68 68 69 69 69 69 69 68 66 64 65 66 63 68 67 71 69 69 67 67 69 69 68 69 69 68 69 67 67 66 66 62 64 64 62 61 60 59 59
6 4 5 6 4 5 7 8 8 8 9 7 7 6 0 8 7 10 7 7 8 13 12 16 18 22 34 39 42 43 45 48 46 44 48 51 51 49 50 49 55 54 51 46 47 54 57 44 48 54 56 53 58 67 68 69 68 67 69 69 69 68 68 68 69 70 68 69 68 63 69 69 69 68 68 68 68 67 69 67 68 66 67 66 67 65 65 66 64 62 61 60 61 60 60 60 61
7 6 2 2 3 8 11 8 10 10 8 7 5 6 3 9 8 10 8 8 13 15 16 18 19 27 35 42 43 46 45 47 48 47 44 46 48 47 51 48 50 46 47 47 50 49 47 43 46 49 56 61 58 65 67 67 67 69 68 68 68 68 69 68 68 69 69 69 69 69 68 68 68 70 68 68 68 68 68 69 68 66 65 65 65 63 62 64 63 61 60 60 60 60 59 58 58
5 4 4 4 5 9 10 9 11 10 8 6 6 7 4 6 7 8 7 11 11 14 16 20 25 32 37 41 46 47 47 46 50 48 45 46 54 53 52 51 50 52 48 51 48 49 50 43 45 45 56 57 59 54 66 66 67 67 68 67 68 70 68 68 68 67 67 69 69 68 70 68 68 68 68 68 68 68 68 68 68 67 65 64 64 62 60 61 61 60 60 59 58 59 59 58 56
5 4 6 7 2 7 9 9 8 6 6 5 8 10 8 9 7 6 6 8 11 12 16 21 27 32 37 44 44 47 49 49 48 49 49 44 50 54 52 51 54 51 51 53 51 47 44 47 50 51 54 57 57 60 58 64 65 67 68 69 69 68 67 68 68 68 68 68 68 67 68 69 69 69 67 68 68 68 68 68 67 68 68 66 63 62 61 60 59 61 61 60 59 59 57 58 55
5 5 6 7 8 8 8 9 7 6 7 9 10 10 10 9 8 10 8 7 12 13 12 20 28 33 35 40 48 47 49 50 49 48 50 49 53 52 52 50 51 51 50 52 51 51 50 43 43 47 55 52 57 57 61 59 62 66 65 67 67 68 67 67 67 68 69 68 68 69 69 69 69 69 68 68 67 67 67 68 67 68 68 68 65 62 64 63 61 62 63 61 56 57 57 58 58
5 2 0 6 9 8 7 8 7 6 6 6 6 8 8 7 10 9 12 11 12 12 11 14 26 35 34 38 46 47 48 50 47 49 48 49 50 51 53 53 50 50 55 52 51 49 56 45 49 49 52 59 55 51 59 61 61 57 61 66 66 65 67 67 67 67 68 68 69 68 67 69 69 68 68 68 69 68 68 68 67 68 68 68 66 66 66 63 64 67 65 62 61 58 57 58 56
4 7 -1 6 9 7 8 8 5 6 6 7 8 6 5 5 8 8 8 10 12 13 10 12 19 30 32 37 40 43 48 48 43 50 49 49 46 47 52 50 53 53 52 53 51 53 55 52 49 55 53 59 59 50 58 58 59 57 58 60 57 56 67 66 66 68 68 67 68 68 68 69 68 68 68 68 68 68 68 68 69 68 68 68 68 68 68 69 64 62 61 62 62 62 61 60 57
7 8 8 7 8 9 9 7 5 9 5 6 7 5 2 3 4 7 7 4 11 11 10 10 18 23 31 35 37 41 42 43 44 45 49 46 48 49 53 53 53 53 51 54 53 55 55 57 56 54 54 59 57 56 56 59 59 53 58 57 58 60 65 64 63 64 66 67 68 67 68 67 68 68 68 69 67 68 67 67 66 67 69 69 70 68 67 67 65 63 62 61 64 61 61 62 56
6 6 8 7 6 7 7 7 5 6 4 6 6 6 3 2 3 5 6 9 11 10 9 10 15 23 28 35 35 39 43 42 43 45 44 46 49 50 52 53 56 49 48 51 56 55 56 56 56 55 56 53 57 55 57 55 59 57 56 57 57 57 61 64 60 59 61 66 67 67 67 66 67 67 67 68 69 68 67 67 67 67 69 68 68 68 67 67 67 64 61 63 62 61 62 63 63
2 2 5 6 4 5 6 7 6 5 4 8 7 9 3 2 2 4 5 8 9 11 10 12 14 22 26 34 35 37 41 42 40 46 47 51 49 50 52 54 54 52 50 53 53 53 55 56 55 55 56 57 56 57 57 55 55 49 49 56 56 58 64 63 59 65 62 59 61 64 66 66 66 66 66 68 68 68 68 68 68 69 69 68 66 68 67 66 66 64 63 62 64 63 61 59 61
3 1 3 2 4 2 4 8 6 4 6 5 4 11 4 2 1 1 5 9 10 12 12 12 18 22 29 31 33 32 38 38 40 43 46 51 50 50 51 53 54 52 54 54 54 54 53 55 56 55 57 57 58 59 60 60 58 60 57 54 59 60 59 55 63 58 53 61 57 63 67 66 66 66 66 67 68 68 67 68 68 67 66 68 68 68 68 68 67 66 65 62 63 60 58 56 58
3 3 14 5 2 2 -2 6 5 6 4 5 4 7 3 3 -0 8 13 11 11 12 13 17 16 24 30 30 32 33 36 36 36 36 44 48 49 51 52 53 53 54 54 53 53 54 54 54 56 57 57 57 58 59 58 61 60 59 58 60 59 59 58 57 63 62 61 65 58 60 63 65 62 63 66 66 68 67 67 66 66 68 68 69 68 69 69 68 67 66 65 63 60 60 55 54 54
6 3 4 6 4 4 1 5 5 6 5 3 5 5 6 6 8 11 12 11 11 14 17 20 25 27 29 30 28 29 36 36 37 37 46 47 46 52 53 54 54 54 54 54 54 54 54 55 57 58 59 59 61 61 60 59 60 60 59 60 60 57 59 57 55 55 60 60 63 59 61 64 64 61 62 66 67 66 67 68 68 67 67 68 69 69 69 69 69 66 65 66 64 59 57 55 54
9 11 10 8 4 6 5 5 5 6 6 8 8 9 8 7 8 14 14 13 13 17 17 20 20 23 26 27 28 28 30 37 38 39 44 49 51 52 52 54 55 54 53 54 54 54 54 56 58 59 59 59 60 61 61 62 61 61 60 60 57 59 58 59 61 62 53 57 62 59 61 64 62 61 62 63 66 66 67 68 68 67 67 66 67 67 68 66 66 67 66 66 66 63 64 61 59
22 21 19 15 13 8 5 8 8 9 11 8 9 9 9 10 9 10 17 18 17 17 23 28 27 22 28 27 26 28 31 31 39 42 46 48 49 52 52 53 56 56 55 54 55 54 54 57 58 59 60 60 60 61 59 58 58 54 52 56 52 55 53 55 59 57 61 61 58 62 62 64 61 63 62 62 64 64 64 67 67 67 67 66 66 66 65 66 66 65 65 64 66 66 65 62 60
24 22 20 17 12 10 9 11 12 15 14 12 13 13 11 11 11 13 14 19 20 18 21 28 25 26 24 25 29 31 34 33 31 43 46 46 50 52 54 53 54 57 56 54 54 54 55 55 57 57 59 60 58 57 57 52 55 52 53 59 60 55 49 57 59 58 56 58 59 56 60 61 62 62 61 62 62 65 64 63 64 67 66 66 65 65 65 66 66 67 66 66 65 64 65 63 62
23 21 19 15 15 15 11 19 23 21 26 15 16 15 15 15 16 15 15 19 18 21 21 24 22 23 26 26 27 30 34 29 29 44 46 46 46 51 54 53 55 55 55 55 55 55 55 58 57 58 58 58 61 60 57 60 55 56 56 51 56 49 47 52 53 56 62 58 61 62 63 62 62 62 64 63 64 62 61 62 63 64 65 65 65 65 66 65 65 65 65 64 63 63 62 64 68
23 20 16 13 11 10 13 23 23 21 25 19 16 16 15 15 13 14 17 18 21 22 23 24 24 24 25 24 28 33 34 36 36 39 47 45 48 50 52 55 54 55 56 57 57 57 57 57 58 59 57 58 60 58 58 53 57 59 58 57 55 54 53 60 54 55 58 53 57 58 59 63 60 58 61 61 63 62 62 63 61 62 63 63 63 62 61 60 65 64 64 64 65 63 62 63 65
22 16 15 13 11 9 10 28 23 27 25 20 19 19 20 20 16 14 18 17 22 30 31 33 30 25 25 26 27 31 32 35 35 38 41 44 46 48 50 54 55 56 56 56 57 57 57 57 58 60 58 58 57 57 59 57 58 60 61 61 59 59 55 58 59 59 57 57 56 56 60 59 59 59 57 54 58 60 62 62 64 62 61 63 64 63 62 61 61 63 65 65 65 62 61 61 62
24 25 19 15 16 14 12 20 26 29 29 30 23 21 13 10 14 16 18 20 25 24 24 25 27 26 29 35 34 34 33 38 38 38 43 45 45 47 49 53 55 56 56 55 57 57 57 57 58 59 58 58 55 58 57 57 58 59 60 59 60 59 58 55 54 54 55 56 58 58 58 58 57 57 59 59 55 58 60 60 61 61 61 62 61 62 62 62 61 60 62 64 64 63 61 63 64
20 25 25 22 21 21 20 23 20 19 19 25 24 18 17 14 9 10 17 20 20 19 20 20 23 25 24 25 30 33 43 47 47 43 43 45 46 48 49 51 54 55 56 56 57 57 57 57 58 59 58 58 55 56 56 57 57 60 59 58 57 57 54 53 53 55 55 55 55 60 57 57 57 57 58 56 57 58 59 59 61 58 59 61 61 61 60 62 61 60 59 61 63 64 63 63 63
22 19 23 23 20 21 21 19 19 16 12 15 26 17 16 19 18 10 14 17 20 21 20 18 20 23 23 26 28 31 36 37 38 42 41 44 47 48 50 50 52 54 55 57 57 57 57 57 58 59 58 57 56 53 57 57 58 58 57 55 55 58 56 53 57 60 59 60 59 58 57 60 55 55 58 58 58 59 59 59 59 60 57 58 59 60 59 59 60 61 61 60 60 63 64 63 62
14 30 26 19 18 20 20 19 15 14 19 23 24 19 19 18 18 13 14 15 14 16 17 20 18 21 21 25 26 32 32 36 40 41 44 46 48 49 49 50 51 53 55 56 57 57 57 58 58 58 58 57 56 55 55 57 56 57 56 56 58 56 58 53 56 55 59 60 59 56 60 61 59 58 59 53 57 57 58 59 59 59 58 55 56 56 58 58 59 60 61 62 62 62 63 63 62
16 30 23 21 19 21 18 15 14 16 17 14 19 20 17 18 19 17 12 10 14 14 18 19 18 17 18 22 26 27 29 35 38 42 45 47 48 49 49 50 51 53 55 55 57 57 58 58 58 59 58 57 57 56 55 55 57 57 56 55 54 54 54 55 53 53 55 57 56 59 59 56 58 57 56 58 57 57 57 57 58 58 58 57 54 54 55 55 57 59 60 61 62 63 62 62 63
22 17 17 22 23 21 19 15 13 16 16 16 16 20 17 14 19 16 15 10 8 16 19 19 20 20 16 18 23 24 23 31 33 38 41 47 48 48 50 51 51 53 55 56 58 59 58 58 57 58 57 56 57 56 54 55 57 56 55 55 55 55 54 54 55 53 57 55 56 57 58 57 59 61 58 56 57 55 57 57 57 57 58 56 56 53 54 55 56 56 56 58 61 62 63 63 62
22 23 21 18 17 15 15 16 15 19 15 14 16 17 13 9 14 14 14 19 16 17 18 18 19 20 16 23 19 23 23 28 27 35 40 45 49 48 49 50 50 53 57 56 58 59 59 58 57 58 58 56 56 56 54 53 56 55 54 55 55 55 54 55 56 53 56 55 55 55 57 58 60 57 60 59 57 55 57 57 56 55 56 56 55 54 54 53 54 56 58 59 58 59 60 62 62
18 17 15 13 14 15 16 16 18 16 13 16 14 16 22 12 13 15 16 17 17 19 16 18 19 20 20 27 21 22 23 26 28 34 38 43 48 48 49 49 50 53 56 55 58 60 59 58 57 57 58 57 56 56 55 53 55 53 54 56 54 56 54 55 55 54 55 55 56 55 57 55 54 55 55 56 57 57 57 57 57 56 55 56 55 55 54 53 54 55 56 56 57 58 59 61 62
14 14 13 13 12 13 13 15 15 14 15 17 15 16 14 10 15 16 15 13 17 19 14 14 15 16 26 22 24 24 24 24 28 32 38 42 46 49 49 49 50 52 54 56 59 60 60 58 57 58 57 57 57 56 55 55 54 53 54 55 55 55 55 54 54 56 55 55 55 54 55 54 53 54 55 55 56 55 55 55 56 56 55 55 55 54 54 54 55 55 54 55 56 56 57 59 61
11 9 11 10 8 9 12 10 14 15 17 17 17 24 17 14 14 16 17 19 13 17 22 19 14 28 28 22 26 23 27 23 25 29 31 41 45 48 48 49 49 52 54 57 59 60 59 58 58 58 57 57 56 56 54 55 54 53 55 54 54 55 54 54 55 54 55 55 54 55 55 54 54 54 53 54 55 55 55 55 55 55 54 53 52 52 53 53 53 52 53 53 54 56 57 57 57
10 10 9 11 12 12 12 9 11 12 18 15 17 18 18 18 16 19 19 16 13 12 13 20 25 24 33 23 19 20 21 26 21 26 29 40 44 47 48 49 50 54 57 58 59 59 59 58 58 58 57 57 56 56 55 55 54 54 54 54 54 54 54 54 54 53 54 54 55 54 54 54 54 53 53 54 55 55 55 55 54 53 52 52 52 52 52 53 53 53 52 53 54 54 54 55 56
8 12 11 13 17 15 10 15 12 14 15 16 16 19 18 20 19 20 17 14 15 14 14 21 20 20 27 27 25 21 24 23 25 28 33 44 46 48 50 51 52 55 58 59 59 59 59 58 58 58 56 56 56 55 55 54 54 54 54 54 53 53 52 53 52 52 55 55 55 55 54 55 54 54 54 54 55 54 54 53 52 52 51 51 51 51 51 51 52 52 52 53 53 54 54 55 55
15 5 11 10 15 14 21 22 22 24 17 12 18 20 17 16 14 17 16 14 13 14 13 12 18 17 27 26 21 19 21 16 29 29 28 47 46 49 51 52 53 55 57 59 58 59 59 58 58 57 56 56 56 55 55 54 54 54 54 53 53 53 53 52 52 53 53 55 55 55 55 55 55 55 54 55 54 53 53 53 51 51 52 52 51 51 51 51 51 52 52 52 52 53 53 53 55
6 9 7 8 7 17 19 14 16 16 14 16 18 21 19 14 15 10 12 15 14 13 13 13 28 23 21 22 31 26 18 22 29 32 34 36 47 49 50 51 52 54 55 57 57 59 59 59 57 57 56 55 56 55 54 54 54 53 54 53 53 53 52 52 53 53 54 54 54 54 54 52 52 53 52 53 54 54 53 51 51 50 51 50 50 49 48 47 49 50 50 51 52 53 53 53 53
7 7 4 8 10 10 12 15 11 12 13 12 15 11 16 10 13 11 12 12 15 17 16 15 16 19 19 23 22 23 26 34 35 32 32 35 40 46 47 49 47 51 53 55 57 58 59 59 57 57 56 55 56 55 54 53 53 53 54 53 52 52 52 51 52 54 53 52 51 52 52 52 53 53 52 52 51 49 49 50 50 50 50 49 49 49 49 49 49 49 50 50 51 52 52 52 53
10 10 9 9 11 12 10 14 14 11 10 12 15 10 12 13 13 14 12 14 15 15 16 18 16 18 29 29 29 27 30 37 30 26 27 31 35 38 44 46 43 47 50 53 55 58 58 58 57 56 56 55 56 55 54 53 53 53 53 53 52 50 50 50 51 51 51 51 50 51 51 51 52 51 50 50 48 47 48 48 47 47 47 47 47 47 46 46 47 48 49 49 49 50 50 51 51
15 14 9 12 21 20 13 18 10 10 11 10 10 10 12 18 20 16 13 16 20 20 23 28 26 25 24 25 34 33 33 40 37 34 31 34 40 41 43 45 40 42 47 52 56 58 58 58 56 55 55 54 55 55 53 52 52 53 53 53 51 51 51 50 50 51 51 50 51 51 51 52 51 50 49 48 47 46 45 45 44 44 44 45 46 46 47 47 47 46 47 48 48 48 48 49 50
12 15 15 13 20 23 23 24 21 21 15 17 11 12 16 20 27 24 20 26 25 18 18 24 24 28 33 35 40 42 39 43 41 42 40 39 38 40 41 42 38 39 45 53 57 57 57 56 55 54 53 52 54 54 52 52 52 52 52 52 52 52 51 50 51 51 50 50 50 51 52 50 49 48 48 46 45 46 45 45 43 42 43 43 44 44 44 45 44 45 45 48 48 48 48 48 50